Showing default

COSMOS 2338, 24726

Orbit data source: Space-Track

COSMOS 2338, 24726 is a payload satellite owned by VKS (CIS) in LEO that was launched on Fri, 14 Feb 1997 UTC via a TSIKLON-3 launch vehicle from the Plesetsk Missile And Space Complex (PKMTR). Payload-class satellites include a variety of spacecraft equipped with specific instruments for various scientific and technological missions. These include communications satellites like Starlink; space stations such as the ISS; scientific satellites like the Hubble; Earth observation satellites from companies like Planet Labs, Umbra, and HawkEye 360; GPS; miniature CubeSats for education and research; and military/defense satellites.

Loading next visibility...
Identifier
24726, 1997-006B
Orbit
LEO
Country
Flag of CISCIS
Related business
Manufacturer
NPO PM
Mission
Non-operational Defense Communications
Bus & Motor
STRELA-3, Unknown motor
Mass
225 kg wet, 225 kg dry
Launch date (UTC)
1997-02-14 (29 years ago)
Launch vehicle
TSIKLON-3
Launch site
Plesetsk Missile And Space Complex (PKMTR)
Object type
Payload
Rocket body
Debris
Shape & HBR
Cyl + 1 Ant, 3.5 m
Radar Cross Section
1.583 m², Medium (>0.1 m² and < 1m²)

Expand to show TLE details & history
Last TLE update: 16 hours ago

TLE from 16 hours ago
0 COSMOS 2338
1 24726U 97006B   26127.88196775  .00000025  00000-0  81705-4 0  9994
2 24726  82.5972 289.2374 0005295 171.7255 188.3924 12.61393400345398
Epoch: 2026-05-07T21:10Z
TLE epoch observation values (Epoch: 2026-05-07T21:10:02.013Z)
Latitude
-0.00001°
Longitude
106.00727°
Altitude
1,424.011 km
Speed
7.147 km/s
True Right ascension
19h 16m 56s
True Declination
0° 00' 00"
Sunlit
Object was in daylight at epoch
Visualization orbit readout
Latitude
Unknown
Longitude
Unknown
Altitude
Unknown
Speed
Unknown
Apparent Right ascension
Unknown
Apparent Declination
Unknown
Sunlit
N/A
Visualization observer readout
Local Sidereal Time
20:52:08
Azimuth
Unknown
Elevation
Unknown
Doppler factor
Unknown
Orbital elements
Apogee altitude
1,418.646 km
Perigee altitude
1,410.393 km
Semi-major axis
7,792.657 km
Eccentricity
0.00053
Inclination
82.5972°
RAAN
289.2374°
Arg. of periapsis
171.7255°
True anomaly
188.38355°
Mean anomaly
188.3924°
Eccentric anomaly
188.38797°
Mean motion
3.15511 °/min
Orbital period
114.1 mins
BSTAR
0.000081705
Loading maneuver chart data...
Computing Atmospheric mass density...
Loading historical data...
Loading historical data...
Loading historical data...
Loading historical data...
Loading historical data...
Loading historical data...
Loading historical data...

Documentation

Showing up to 5 results
|